Regional Weather Roundup
Issued by NWS

Home | Current Version | Previous Version | Graphics & Text | Print | Product List | Glossary On
Versions: 1 2 3 4 5 6 7 8 9 10 11 12 13 14 15 16 17 18 19 20 21 22 23 24 25 26 27 28 29 30 31 32 33 34 35 36 37 38 39 40 41 42 43 44 45 46 47 48 49 50
000
ASUS45 KCYS 230210
RWRWY

WYOMING REGIONAL WEATHER ROUNDUP
NATIONAL WEATHER SERVICE CHEYENNE WY
700 PM MST WED FEB 22 2017

NOTE:  "FAIR" INDICATES FEW OR NO CLOUDS BELOW 12,000 FEET
WITH NO SIGNIFICANT WEATHER AND/OR OBSTRUCTIONS TO VISIBILITY.

WYZ001-230300-
YELLOWSTONE NATIONAL PARK

CITY           SKY/WX    TMP DP  RH WIND       PRES   REMARKS
LK YELLOWSTONE   N/A     11   9  92 NW3       29.80S
W YELLOWSTONE  NOT AVBL

$$
WYZ002>013-054>058-071-098>099-230300-
NORTHERN WYOMING

CITY           SKY/WX    TMP DP  RH WIND       PRES   REMARKS
JACKSON        FAIR      27  18  69 N5        29.78F WCI  21
CODY           CLOUDY    33  23  66 CALM      29.84F
GREYBULL       FAIR      36  28  73 W9        29.82S WCI  29
WORLAND        FAIR      34  26  72 N6        29.80S WCI  29
SHERIDAN       LGT SNOW  33  32  96 SW10      29.88S FOG     WCI  25
BUFFALO        LGT SNOW  32  29  88 NW6       29.86F FOG     WCI  26
GILLETTE       CLOUDY    32  28  85 NE13      29.86S WCI  22
HULETT         CLOUDY    32  28  86 MISG      29.89S
NEWCASTLE      FAIR      36  27  69 N7        29.84S WCI  30

$$
WYZ014>020-022>026-101>103-230300-
CENTRAL WYOMING

CITY           SKY/WX    TMP DP  RH WIND       PRES   REMARKS
BIG PINEY      FAIR      20  15  81 N12       29.75F WCI   8
PINEDALE       CLOUDY    21  18  86 NW8       29.75F WCI  12
DUBOIS         FAIR      23  12  63 NW3       29.76S
LANDER         FAIR      34  21  59 NW5       29.75S WCI  30
RIVERTON       FAIR      34  17  50 NE9       29.76F WCI  27
CASPER         FAIR      34  23  64 S5        29.78F WCI  30
DOUGLAS        CLOUDY    37  22  54 N6        29.80F WCI  32

$$
WYZ021-027>030-104>119-230300-
SOUTHERN WYOMING

CITY           SKY/WX    TMP DP  RH WIND       PRES   REMARKS
EVANSTON       LGT SNOW  25  22  88 CALM      29.73F VSB 1
KEMMERER       LGT SNOW  25  21  86 N6        29.75F WCI  18
FORT BRIDGER   LGT SNOW  26  26 100 E7        29.77S WCI  19
ROCK SPRINGS   CLOUDY    28  22  78 S6        29.74F WCI  22
DIXON            N/A     29  27  91 N6        29.76F WCI  23
RAWLINS        LGT SNOW  28  25  88 SE5       29.78F FOG     WCI  23
SARATOGA       LGT SNOW  28  28 100 NE6       29.78F VSB 1   WCI  22
LARAMIE        LGT SNOW  27  24  89 N9        29.78S FOG     WCI  18
CHEYENNE       FLURRIES  32  27  81 NE9       29.81S WCI  24
TORRINGTON     CLOUDY    46  13  26 N8        29.81R
PINE BLUFFS    FAIR      32  18  55 NW8G20    29.81F WCI  25

$$



USA.gov is the U.S. government's official web portal to all federal, state and local government web resources and services.